Regional Weather Roundup
Issued by NWS

Home | Current Version | Previous Version | Text Only | Print | Product List | Glossary On
Versions: 1 2 3 4 5 6 7 8 9 10 11 12 13 14 15 16 17 18 19 20 21 22 23 24 25 26 27
000
ASUS44 KLIX 280011
RWRLA
LOUISIANA WEATHER ROUNDUP
NATIONAL WEATHER SERVICE NEW ORLEANS LA
700 PM CDT WED JUL 27 2016

NOTE: "FAIR" INDICATES FEW OR NO CLOUDS BELOW 12,000 FEET WITH NO
      SIGNIFICANT WEATHER AND/OR OBSTRUCTIONS TO VISIBILITY.
      SKY/WX - SKY CONDITION AND SIGNIFICANT WEATHER.
      TMP - AIR TEMPERATURE.    DP   - DEWPOINT TEMPERATURE.
      RH  - RELATIVE HUMIDITY.  PRES - PRESSURE.
      HX  - HEAT INDEX.         WCI  - WIND CHILL INDEX.

*  THESE STATIONS ARE NOT NWS OR FAA STATIONS AND ARE NOT UNDER
   NWS QUALITY CONTROL.

LAZ040-048-061>063-065-066-069-280100-
SOUTHEAST LOUISIANA

CITY           SKY/WX    TMP DP  RH WIND       PRES   REMARKS
N.O. AUDUBON     N/A     84  74  71 MISG        N/A
6HR MIN TEMP:  84;                    6HR PCP:  0.03;

N.O. INTL ARPT PTSUNNY   86  72  62 SE6       30.00F
6HR MIN TEMP:  82; 6HR MAX TEMP:  87;

N.O. LAKEFRONT MOSUNNY   85  69  58 SW7       30.01F
6HR MIN TEMP:  80; 6HR MAX TEMP:  86;

N.O. DOWNTOWN* FAIR      84  72  67 SW5       30.02F
6HR MIN TEMP:  82; 6HR MAX TEMP:  87;

RESERVE*       FAIR      86  73  66 CALM      30.00F
6HR MIN TEMP:  77; 6HR MAX TEMP:  86;

SLIDELL        MOSUNNY   83  72  69 SW5       30.01F
6HR MIN TEMP:  76; 6HR MAX TEMP:  84; 6HR PCP:  0.01;

BATON ROUGE    CLOUDY    81  71  71 S7        29.98F
6HR MIN TEMP:  75; 6HR MAX TEMP:  84; 6HR PCP:  0.14;

BOOTHVILLE     MOSUNNY   81  76  84 E3        30.03F
6HR MIN TEMP:  76; 6HR MAX TEMP:  89; 6HR PCP:  0.41;

BELLE CHASSE   PTSUNNY   83  74  74 SW3       30.01F
6HR MIN TEMP:  81; 6HR MAX TEMP:  86;

BOGALUSA*      FAIR      83  73  71 S5        30.01F
6HR MIN TEMP:  77; 6HR MAX TEMP:  86; 6HR PCP:  0.05;

GALLIANO*      PTCLDY    84  75  73 CALM      30.02R
6HR MIN TEMP:  83; 6HR MAX TEMP:  87;

NEW ROADS*     FAIR      80  75  84 SE5       29.97F
6HR MIN TEMP:  78; 6HR MAX TEMP:  81;

GONZALES*      MOCLDY    80  74  79 S3        29.98F
6HR MIN TEMP:  75; 6HR MAX TEMP:  83; 6HR PCP:  0.02;

HAMMOND*       PTSUNNY   81  70  69 S5        29.99F
HOUMA*         MOSUNNY   82  73  74 CALM      30.01F
PORT FOURCHON* CLEAR     82  73  74 CALM      30.02S

$$

LAZ041-044-053-054-280100-
SOUTHWEST LOUISIANA

CITY           SKY/WX    TMP DP  RH WIND       PRES   REMARKS
LAKE CHARLES   CLOUDY    83  74  74 S3        29.95F
6HR MIN TEMP:  79; 6HR MAX TEMP:  84;

LAFAYETTE      CLOUDY    83  74  74 S7        29.97F
6HR MIN TEMP:  78; 6HR MAX TEMP:  86; 6HR PCP: TRACE;

PATTERSON      MOSUNNY   80  76  87 SE3       30.00F
6HR MIN TEMP:  76; 6HR MAX TEMP:  85; 6HR PCP:  0.04;

SALT POINT       N/A     81  75  82 SE3       29.97F
6HR MIN TEMP:  76; 6HR MAX TEMP:  84;

NEW IBERIA     MOSUNNY   82  74  76 S5        29.98F
6HR MIN TEMP:  78; 6HR MAX TEMP:  83;

CHENAULT AIRPK NOT AVBL

$$

LAZ027-028-280100-
CENTRAL LOUISIANA

CITY           SKY/WX    TMP DP  RH WIND       PRES   REMARKS
FORT POLK      MOSUNNY   83  72  71 S8        29.94F
6HR MIN TEMP:  76; 6HR MAX TEMP:  85; 6HR PCP:  0.01;

ALEXANDRIA INT MOSUNNY   81  74  79 S10       29.92F
6HR MIN TEMP:  77; 6HR MAX TEMP:  83; 6HR PCP:  0.01;

ALEXANDRIA     CLOUDY    81  74  79 S6        29.94F
6HR MIN TEMP:  73; 6HR MAX TEMP:  82; 6HR PCP:  0.94;


$$

LAZ001-002-280100-
NORTHWEST LOUISIANA

CITY           SKY/WX    TMP DP  RH WIND       PRES   REMARKS
SHREVEPORT     CLOUDY    78  76  93 VRB3      29.92F
6HR MIN TEMP:  75; 6HR MAX TEMP:  93; 6HR PCP:  0.67;

BARKSDALE AFB  CLOUDY    77  74  92 CALM      29.92F
6HR MIN TEMP:  74; 6HR MAX TEMP:  92; 6HR PCP:  1.58;

DTN SHREVEPORT CLOUDY    79  73  82 S3        29.93F
6HR MIN TEMP:  77; 6HR MAX TEMP:  94; 6HR PCP: TRACE;


$$

LAZ014-016-280100-
NORTHEAST LOUISIANA

CITY           SKY/WX    TMP DP  RH WIND       PRES   REMARKS
MONROE         CLOUDY    81  73  76 SW13G21   29.93S
6HR MIN TEMP:  81; 6HR MAX TEMP:  90; 6HR PCP: TRACE;

TALLULAH       MOSUNNY   77  74  90 VRB3      29.95S
6HR MIN TEMP:  77; 6HR MAX TEMP:  82; 6HR PCP:  0.38;


$$





USA.gov is the U.S. government's official web portal to all federal, state and local government web resources and services.